[[{"header":{"parameterUnit":"m.s-1","parameterCategory":1,"la1":30.2991,"la2":30.254,"lo1":-89.0895,"lo2":-89.0444,"dy":0.0017,"dx":0.0017,"nx":28,"ny":28,"refTime":"2023-07-22T21:00:00:Z","depth":0,"parameterNumber":2,"parameterNumberName":"U-component_of_WINDS"},"data":[0,0,0,0,0,0,0,0,0,0,0,0,0,0,0,0,0,0,0,0,0,0,0,0,0,0,0,0,0,0,0,0,0,0,0,0,0,0,0,0,0,0,0,0,0,0,0,0,0,0,0,0,0,0,0,0,0,0,2.1018,2.102,0,2.1162,2.1163,2.1165,2.1161,2.1159,2.1157,2.1156,2.1317,2.1323,2.1329,0,0,0,0,0,0,0,0,0,0,0,0,0,2.0756,2.076,2.1018,2.102,2.1022,2.1161,2.1164,2.1166,2.1162,2.1159,2.1157,2.1155,2.1315,2.1322,2.1329,0,0,0,0,0,0,0,0,0,0,0,0,0,2.0882,2.0762,2.1018,2.1036,2.104,2.1161,2.1164,2.1166,2.1162,2.1159,2.1156,2.1154,2.1312,2.1321,2.133,2.1447,0,0,2.1359,2.1363,0,0,0,0,0,0,0,0,2.0875,2.0891,2.1032,2.1035,2.1039,2.114,2.113,2.1261,2.1163,2.1116,2.1156,2.1152,2.1261,2.1275,2.1309,2.1455,2.1462,2.1359,2.1365,2.1369,2.1372,0,0,0,0,0,0,0,2.0866,2.0885,2.1075,2.1034,2.1039,2.1042,2.1057,2.1155,2.1204,2.112,2.112,2.1136,2.1263,2.13,2.1312,2.1464,2.1359,2.1367,2.1373,2.1377,2.1716,2.1719,0,0,0,0,0,0,2.0851,2.0878,2.1071,2.108,2.0947,2.1049,2.1066,2.1111,2.1203,2.1214,2.1139,2.1136,2.1285,2.1302,2.1318,2.1461,2.1369,2.1377,2.1383,2.1712,2.1716,2.172,0,0,0,0,0,0,2.0846,2.0868,2.1065,2.0979,2.1004,2.1057,2.1108,2.1116,2.1152,2.1217,2.1227,2.1166,2.1284,2.1305,2.1414,2.1466,2.1382,2.139,2.1708,2.1713,2.1718,2.1747,0,0,0,0,0,0,2.0838,2.0866,2.0907,2.098,2.1009,2.1155,2.1111,2.1121,2.1166,2.1163,2.1245,2.1256,2.1283,2.1401,2.1424,2.1477,2.1397,2.1704,2.171,2.1717,2.1741,2.1752,2.1762,0,0,0,0,0,2.0829,2.0913,2.091,2.0933,2.1061,2.1157,2.1175,2.1199,2.117,2.1214,2.1257,2.1254,2.1457,2.1412,2.1438,2.1495,2.17,2.1709,2.1716,2.1737,2.175,2.1761,0,0,0,0,0,0,2.085,2.0922,2.092,2.1029,2.1086,2.1156,2.1212,2.1212,2.1283,2.1278,2.1311,2.1329,2.1439,2.1479,2.1427,2.1614,2.1576,2.1589,2.1583,2.1596,2.1606,2.1594,2.1405,0,0,0,0,0,2.0866,2.0934,2.0996,2.1087,2.1115,2.1159,2.1202,2.1216,2.1279,2.1305,2.1355,2.142,2.1499,2.155,2.1627,2.1748,2.1767,2.1801,2.1811,2.1819,2.183,2.1898,2.1914,2.1746,2.1746,2.1746,0,0,2.0902,2.0951,2.0992,2.1092,2.1138,2.1212,2.118,2.1259,2.1315,2.1319,2.1422,2.1463,2.1538,2.1654,2.1708,2.1691,2.1881,2.1829,2.1835,2.1841,2.1908,2.1924,2.1938,2.1751,2.175,2.1749,0,0,2.1005,2.1048,2.1127,2.1174,2.1243,2.1272,2.1292,2.1362,2.1387,2.1492,2.1496,2.1567,2.1701,2.1754,2.1799,2.1925,2.1926,2.195,2.2002,2.2069,2.2082,2.2094,2.2138,2.2154,2.1961,2.1961,2.1961,0,2.1042,2.1148,2.117,2.1249,2.1294,2.1297,2.138,2.1426,2.1519,2.1552,2.1531,2.1699,2.1751,2.1879,2.191,2.1946,2.1972,2.1939,2.2077,2.209,2.2101,2.2144,2.2161,2.1963,2.1963,2.1963,2.1963,0,2.1191,2.1265,2.1323,2.1406,2.1459,2.154,2.1578,2.1629,2.164,2.1672,2.1781,2.1843,2.1931,2.1964,2.1977,2.2096,2.2083,2.2069,2.2031,2.2119,2.216,2.2177,2.1967,2.1966,2.1965,2.1965,0,0,2.1308,2.1403,2.1424,2.1462,2.154,2.16,2.1684,2.1766,2.181,2.1876,2.1948,2.2062,2.205,2.2101,2.2121,2.218,2.2276,2.216,2.2162,2.2178,2.2411,2.2419,2.2437,2.2277,2.2281,2.2283,2.2404,0,2.1418,2.1559,2.1582,2.1709,2.1779,2.1785,2.1858,2.1916,2.195,2.2019,2.2059,2.2138,2.2117,2.2148,2.2206,2.2251,2.2323,2.2243,2.2348,2.2351,2.2326,2.2459,2.2467,2.2578,2.2421,2.2424,2.2426,0,2.1563,2.1627,2.1759,2.1828,2.1859,2.1923,2.2001,2.2066,2.2134,2.2155,2.2212,2.2226,2.2317,2.2277,2.2405,2.235,2.2396,2.2425,2.243,2.244,2.2392,2.2471,2.2615,2.2631,2.2451,2.2449,2.2447,0,2.1634,2.1754,2.1848,2.1882,2.1965,2.201,2.2048,2.2113,2.2162,2.2233,2.2265,2.2347,2.2392,2.2458,2.2495,2.2462,2.2622,2.2584,2.2644,2.2643,2.2675,2.2672,2.2826,2.2707,2.2707,2.2707,2.2706,0,2.1752,2.1833,2.1881,2.1939,2.2031,2.206,2.2152,2.2189,2.2247,2.2316,2.2329,2.2395,2.244,2.2514,2.2545,2.2646,2.2668,2.269,2.2696,2.2687,2.2684,2.2716,2.2708,2.2711,2.271,2.2709,2.2709,0,2.1845,2.188,2.1983,2.2053,2.2073,2.2138,2.22,2.2259,2.2294,2.2381,2.2404,2.2459,2.2547,2.259,2.2701,2.2721,2.2836,2.284,2.2811,2.2813,2.287,2.2864,2.3049,2.3075,2.294,2.2941,2.2942,0,2.1916,2.1978,2.2054,2.2099,2.2136,2.2209,2.2257,2.2291,2.2342,2.2425,2.2475,2.2562,2.2633,2.2773,2.2826,2.2912,2.2916,2.2975,2.2929,2.2918,2.2916,2.2911,2.2917,2.2983,2.2984,2.2985,2.2986,0,2.204,2.2055,2.2122,2.2196,2.2253,2.2315,2.2375,2.2413,2.2457,2.2515,2.2601,2.2656,2.2767,2.2854,2.2943,2.2988,2.2995,2.3,2.3019,2.3009,2.2989,2.2999,2.2832,2.2996,2.2995,2.2994,2.2993,2.2993,2.2124,2.2179,2.224,2.2316,2.2365,2.2421,2.248,2.2521,2.2592,2.2681,2.2699,2.2791,2.2862,2.2982,2.3029,2.3105,2.3093,2.312,2.3126,2.3132,2.3133,2.2978,2.3122,2.3122,2.3122,2.3122,2.3122,0,2.2247,2.2287,2.2356,2.2438,2.2499,2.2498,2.2566,2.2618,2.2697,2.276,2.2829,2.293,2.3015,2.3076,2.3163,2.3213,2.3219,2.3235,2.3231,2.3241,2.314,2.3115,2.3228,2.3228,2.3228,2.3228,2.3228,2.3228,2.2317,2.241,2.2433,2.2552,2.2593,2.268,2.2719,2.2773,2.2823,2.2934,2.3002,2.304,2.3104,2.3196,2.3276,2.3292,2.3324,2.3339,2.3356,2.326,2.3248,2.3237,2.3213,2.3346,2.3346,2.345,2.3451,2.3452]},{"header":{"parameterUnit":"m.s-1","parameterCategory":1,"la1":30.2991,"la2":30.254,"lo1":-89.0895,"lo2":-89.0444,"dy":0.0017,"dx":0.0017,"nx":28,"ny":28,"refTime":"2023-07-22T21:00:00:Z","depth":0,"parameterNumber":3,"parameterNumberName":"V-component_of_WINDS"},"data":[0,0,0,0,0,0,0,0,0,0,0,0,0,0,0,0,0,0,0,0,0,0,0,0,0,0,0,0,0,0,0,0,0,0,0,0,0,0,0,0,0,0,0,0,0,0,0,0,0,0,0,0,0,0,0,0,0,0,0.3886,0.3885,0,0.38,0.3799,0.3798,0.3701,0.37,0.3698,0.3697,0.3611,0.361,0.3609,0,0,0,0,0,0,0,0,0,0,0,0,0,0.3968,0.3967,0.3886,0.3885,0.3884,0.38,0.3799,0.3798,0.3701,0.37,0.3698,0.3696,0.3611,0.361,0.3609,0,0,0,0,0,0,0,0,0,0,0,0,0,0.3913,0.3967,0.3886,0.3825,0.3819,0.38,0.3799,0.3798,0.3702,0.37,0.3697,0.3695,0.3611,0.361,0.3609,0.3643,0,0,0.3604,0.3604,0,0,0,0,0,0,0,0,0.3916,0.391,0.3835,0.3829,0.3822,0.3759,0.3796,0.3746,0.3702,0.3746,0.3697,0.3694,0.3662,0.3656,0.3645,0.3639,0.3635,0.3604,0.3603,0.3603,0.3602,0,0,0,0,0,0,0,0.392,0.3913,0.3852,0.3834,0.3826,0.3803,0.3793,0.3786,0.3717,0.3742,0.3735,0.3726,0.3658,0.3647,0.3642,0.3634,0.3604,0.3603,0.3602,0.3601,0.3657,0.3659,0,0,0,0,0,0,0.3933,0.3917,0.3854,0.3849,0.3865,0.3804,0.3792,0.3782,0.3717,0.3705,0.3728,0.3722,0.365,0.3644,0.3639,0.3678,0.3603,0.3601,0.3601,0.3654,0.3657,0.366,0,0,0,0,0,0,0.3935,0.3928,0.3858,0.3881,0.387,0.3805,0.3794,0.3781,0.3769,0.3706,0.3694,0.3729,0.3648,0.3641,0.3644,0.3674,0.3601,0.3599,0.3652,0.3655,0.3658,0.3755,0,0,0,0,0,0,0.3938,0.3929,0.3941,0.3882,0.3869,0.3864,0.3795,0.3781,0.3767,0.3758,0.3704,0.3693,0.3646,0.3646,0.3642,0.367,0.3598,0.3649,0.3653,0.3657,0.3749,0.3762,0.3772,0,0,0,0,0,0.3941,0.3971,0.3942,0.3935,0.3882,0.3865,0.3858,0.3803,0.377,0.3782,0.3742,0.3695,0.3671,0.3647,0.3642,0.367,0.3647,0.3652,0.3657,0.3744,0.3759,0.3772,0,0,0,0,0,0,0.4034,0.3962,0.3929,0.3941,0.391,0.3849,0.3862,0.382,0.3799,0.3791,0.3724,0.3713,0.3725,0.3697,0.3673,0.3702,0.3652,0.3656,0.372,0.3734,0.3745,0.3753,0.3597,0,0,0,0,0,0.4056,0.4048,0.3985,0.4002,0.3988,0.3928,0.3918,0.3879,0.3845,0.3831,0.3791,0.376,0.3746,0.3738,0.3721,0.3744,0.3733,0.3761,0.3773,0.3783,0.3788,0.3802,0.3815,0.3677,0.3677,0.3677,0,0,0.4102,0.4061,0.406,0.402,0.3991,0.3986,0.3918,0.3913,0.3909,0.383,0.3832,0.3802,0.3763,0.3777,0.3781,0.3755,0.3824,0.3789,0.3798,0.3797,0.3809,0.3822,0.3834,0.368,0.368,0.3679,0,0,0.4182,0.4149,0.4161,0.4135,0.4093,0.4053,0.4057,0.4002,0.398,0.398,0.3922,0.3916,0.3892,0.3868,0.3852,0.3928,0.3885,0.3924,0.3985,0.4,0.4011,0.402,0.405,0.4061,0.3929,0.3929,0.3929,0,0.4244,0.4232,0.4173,0.4173,0.4159,0.4088,0.4101,0.4078,0.4033,0.4025,0.3996,0.3967,0.3935,0.3945,0.3964,0.3952,0.3956,0.393,0.4014,0.4023,0.403,0.4059,0.407,0.3934,0.3934,0.3933,0.3933,0,0.4312,0.4305,0.432,0.428,0.4267,0.4273,0.4216,0.421,0.4173,0.4137,0.414,0.41,0.4076,0.4075,0.4037,0.408,0.4066,0.4026,0.3974,0.405,0.4076,0.4085,0.3942,0.394,0.3938,0.3937,0,0,0.4448,0.4377,0.4383,0.4366,0.4316,0.431,0.4315,0.4292,0.429,0.4261,0.4266,0.4249,0.4213,0.4195,0.4155,0.4167,0.4234,0.4126,0.4125,0.4151,0.4283,0.4316,0.4329,0.4205,0.4206,0.4208,0.4288,0,0.4522,0.4526,0.4474,0.4493,0.4488,0.4421,0.4426,0.4397,0.4365,0.4357,0.432,0.4311,0.4262,0.4252,0.4261,0.4224,0.426,0.4217,0.4211,0.4211,0.4225,0.4341,0.4374,0.4452,0.4297,0.4299,0.43,0,0.4607,0.4586,0.4605,0.4558,0.4554,0.4559,0.4535,0.4527,0.4494,0.447,0.4453,0.4407,0.4411,0.4361,0.4367,0.4339,0.4333,0.4315,0.4317,0.4316,0.4262,0.4347,0.4475,0.4488,0.4314,0.4313,0.4312,0,0.4709,0.4684,0.4694,0.468,0.4624,0.463,0.4607,0.4572,0.4563,0.4542,0.4536,0.4516,0.4506,0.4492,0.4444,0.4411,0.4457,0.4402,0.4439,0.4441,0.4453,0.4453,0.4585,0.4445,0.4445,0.4445,0.4445,0,0.4797,0.4812,0.4739,0.4745,0.4761,0.4702,0.4719,0.469,0.466,0.4661,0.4601,0.4604,0.4538,0.4533,0.4495,0.4508,0.4503,0.4485,0.4476,0.4492,0.4495,0.4489,0.4483,0.4448,0.4447,0.4447,0.4446,0,0.4914,0.4864,0.4871,0.4819,0.4806,0.482,0.4776,0.4781,0.4745,0.4747,0.4744,0.4689,0.4681,0.463,0.461,0.4585,0.4613,0.4591,0.4625,0.4618,0.466,0.4658,0.4794,0.4811,0.4659,0.466,0.4661,0,0.4974,0.4985,0.4935,0.4931,0.4911,0.4906,0.4896,0.4839,0.4832,0.4798,0.4807,0.4794,0.4781,0.4772,0.4731,0.4717,0.4696,0.4745,0.4693,0.4711,0.47,0.4701,0.4704,0.4756,0.4758,0.476,0.4761,0,0.5089,0.5065,0.5053,0.5035,0.5026,0.5009,0.4988,0.4988,0.4925,0.4921,0.4913,0.4903,0.4884,0.4873,0.4852,0.483,0.4787,0.4778,0.4786,0.4804,0.4825,0.4818,0.4658,0.4775,0.4774,0.4773,0.4772,0.4771,0.5181,0.5188,0.5156,0.5146,0.5125,0.5107,0.511,0.5076,0.5068,0.5048,0.5015,0.5013,0.4983,0.495,0.4932,0.493,0.4905,0.4916,0.4919,0.4924,0.4934,0.4823,0.4926,0.4925,0.4925,0.4925,0.4924,0,0.5295,0.5271,0.5263,0.5236,0.523,0.5189,0.5165,0.5163,0.5161,0.5137,0.5126,0.5118,0.5109,0.5068,0.5055,0.5061,0.5042,0.506,0.506,0.5057,0.4956,0.4951,0.5077,0.5077,0.5077,0.5077,0.5077,0.5077,0.5353,0.5365,0.5339,0.5341,0.5316,0.5314,0.5304,0.5289,0.527,0.5264,0.5256,0.523,0.52,0.5184,0.5175,0.5163,0.5162,0.5188,0.5171,0.5078,0.5063,0.5049,0.5045,0.5188,0.5188,0.5272,0.5273,0.5273]}]]